星链-31533 (STARLINK-31533 )

导读

STARLINK-31533是美国于2024年4月13日发射的星链卫星,隶属于SpaceX公司的星链互联网星座项目。星链计划旨在通过部署近地轨道卫星群,为全球提供高速低延迟宽带互联网服务,该卫星的发射延续了星链星座持续组网扩容的节奏,助力完善全球卫星互联网覆盖。

基本信息
目录编号:
59505
目录名称:
STARLINK-31533
国际标识:
2024-071X
轨道中心:
EARTH
卫星名称:
星链-31533
卫星全名:
星链-31533 (STARLINK-31533 )
卫星状态:
在轨 (已飞行792 天)
发射日期:
2024-04-13 UTC
国别 :
美国 (US)
星等 :
--
轨道信息
数据来源 国际轨道数据 AOE轨道数据
星历时间 2026-06-14T00:50:56+0800
18小时前
查看轨道信息
2026-06-09T05:00:00+0800
5天前
查看轨道信息
半长轴 6861.192km 6861.135km
偏心率 0.0002194 0.000336
轨道倾角 43.012° 42.999°
近地点辐角 271.823° 199.254°
升交点赤经 158.017° 185.276°
平近点角 88.237° 224.505°
近地点 481.549km 480.692km
远地点 484.561km 485.304km
周期 94.267分钟 94.266分钟
每日圈数 15.275783 15.275971
详细信息
固有亮度:
5
最大亮度:
1.5
卫星平台:
Starlink v2.0 mini
覆盖范围:
全球
运营商:
太空探索技术公司
运营商所在国:
美国
制造商(研发单位):
太空探索技术公司
制造商所在国:
美国
使用方式:
暂无
卫星简介
星链(Starlink)计划是由太空探索技术公司(SpaceX)提出的一个巨型低轨卫星互联网星座项目,计划在2019年至2024年间在太空搭建由约1.2万颗卫星组成的“星链”网络,其中1584颗将部署在地球上空550千米处的近地轨道,并从2020年开始工作。该卫星仍在工作。
2D轨道图
3D轨道图
轨道高度分析图
轨道倾角分析图
轨道综合分析图
查看轨道综合分析图